KOMPSAT-3A

Last updated on Thu Oct 30 2025 00:02:31 GMT+0000 (Coordinated Universal Time)

1 40536U 15014A 25302.51212356 .00021793 00000+0 51694-3 0 9995 2 40536 97.6744 274.5060 0002331 7.5766 352.5515 15.41744862586132
UTC large
Height (km)
Speed (km/s)
/
Latitude / Longitude
Inclination (degrees)
Orbital Period (minutes)
Azimuth
Elevation
Range (km)
Doppler Factor

Next 0 passes for location: London (51.5072 / 0.1276)

Sorry there are no passes over London.